Wind_Speed
67 66 63 61 58 55 53 50 48 49 50 50 49 47 46 46 47 46 46 46 45 44 45 45 45 44 42 41 39 39 42 43 43 44 45 45 46 46 46 47 48 48
68 66 65 62 58 55 53 52 49 48 49 50 49 48 46 46 47 46 46 47 46 44 45 46 45 44 43 42 40 40 42 44 44 45 46 47 47 48 48 48 48 48
69 67 66 62 58 55 54 53 50 48 48 48 49 48 47 47 47 47 47 46 46 44 44 46 46 45 45 44 42 40 42 45 45 46 47 48 49 49 49 48 48 48
69 68 66 63 60 57 56 54 51 50 49 49 50 49 48 49 48 48 46 45 45 45 45 46 46 46 47 46 44 42 42 46 47 48 49 49 50 50 49 48 47 47
69 69 67 64 62 59 57 55 53 52 51 50 50 50 49 49 48 47 46 44 45 46 46 46 46 48 48 47 47 46 45 47 50 50 51 50 50 50 49 47 46 46
71 69 68 66 64 62 59 57 55 53 52 51 50 50 49 48 47 47 46 45 45 46 47 47 47 49 50 49 49 49 48 49 51 52 51 50 50 49 48 47 45 44
72 71 70 69 67 65 61 58 56 55 54 53 52 52 50 48 47 47 47 47 47 47 48 48 48 49 51 52 51 51 51 50 51 52 50 49 49 48 47 46 44 43
75 73 72 71 69 67 63 60 58 57 57 55 53 51 50 48 48 48 48 48 49 49 50 50 50 51 53 54 53 52 51 50 50 51 49 48 48 47 46 44 43 41
77 75 74 73 71 68 64 62 60 59 59 56 52 51 49 48 49 50 50 50 50 51 51 51 51 52 54 55 53 52 50 49 48 49 48 47 47 46 44 42 41 40
79 77 75 73 71 68 66 64 63 62 61 58 55 53 51 51 51 51 51 51 52 52 53 53 53 53 54 54 52 50 48 46 46 47 47 46 45 45 43 41 41 39
79 77 76 74 71 70 68 67 66 64 63 62 60 58 57 56 54 52 50 51 52 53 53 53 53 52 52 52 51 48 45 44 44 45 46 44 44 44 41 40 41 39
76 75 74 73 72 72 71 70 68 67 66 65 64 62 60 58 55 52 49 50 50 51 51 51 50 49 49 50 49 47 45 43 43 45 45 44 44 43 40 40 41 39
74 72 73 74 73 72 72 72 71 69 66 65 64 63 60 56 53 50 47 46 47 47 47 46 46 46 47 48 48 47 45 43 43 45 45 44 44 42 39 40 42 39
71 68 69 72 72 72 71 72 71 68 65 63 62 61 57 53 50 48 46 44 44 44 43 42 42 44 46 47 47 47 46 44 42 44 46 45 44 41 38 40 42 40
70 67 65 67 70 69 69 70 68 65 63 61 59 58 55 52 50 48 46 45 43 42 42 41 41 43 45 46 46 46 46 44 41 43 45 45 43 41 38 40 42 40
73 72 69 68 69 67 66 67 65 62 62 59 56 56 53 50 48 47 46 45 43 41 41 41 41 42 44 45 45 45 45 43 40 42 45 44 43 40 39 41 42 40
75 74 71 69 67 66 66 65 62 61 61 57 52 49 47 44 43 42 41 42 41 40 40 40 40 41 41 43 44 43 43 41 39 40 43 43 42 40 39 41 42 40
74 72 71 68 65 64 64 64 62 61 60 55 51 48 44 42 42 40 39 39 38 38 37 38 39 39 38 41 43 41 41 40 38 38 41 42 41 39 39 41 41 40
74 71 70 69 67 65 64 63 61 61 61 59 57 53 47 44 44 43 40 38 36 35 35 37 38 37 37 40 41 40 39 38 37 38 41 42 40 38 39 41 41 40
74 70 67 67 66 65 64 63 61 61 61 61 60 55 49 45 45 44 42 38 36 35 35 36 36 36 38 41 40 39 39 38 37 38 41 43 41 38 39 41 41 41
74 70 67 66 66 65 64 63 62 60 59 58 57 54 50 46 44 43 41 38 37 35 35 36 36 37 40 42 41 39 39 38 37 38 41 43 42 39 39 40 41 41
77 72 69 67 66 65 64 62 61 61 60 59 57 53 49 46 44 42 40 39 38 36 35 36 38 39 41 43 42 40 40 39 38 39 42 44 44 41 39 41 42 42
79 74 71 70 68 64 62 61 60 60 59 58 55 52 48 46 44 43 41 39 38 37 36 38 39 40 42 44 44 42 41 41 40 40 43 45 45 43 40 41 43 42
81 73 65 65 68 65 61 60 60 58 56 55 54 52 48 46 46 46 43 40 38 37 37 39 40 41 43 45 46 45 44 43 41 42 44 46 47 45 43 42 43 42
81 75 66 63 64 63 61 60 59 57 55 54 53 52 48 46 46 46 44 42 40 38 38 40 41 43 45 46 47 47 46 45 44 43 45 48 48 46 45 44 44 43
79 79 76 70 65 61 59 59 59 57 55 53 52 50 48 46 46 45 44 43 41 40 39 40 42 44 46 48 50 50 49 48 46 45 47 49 49 48 47 47 45 44
Wind_Direction
243 245 246 247 249 251 250 251 254 258 260 261 262 263 265 267 269 271 272 274 275 278 281 281 282 282 282 284 288 290 291 293 294 295 296 297 298 300 302 303 304 306
242 243 244 246 249 248 248 249 253 256 259 260 261 263 265 266 268 269 270 271 274 276 279 280 281 281 282 285 288 290 291 292 293 294 295 297 298 300 302 303 304 307
241 242 244 246 247 246 246 248 252 255 257 259 261 263 265 266 268 269 270 272 274 276 277 279 281 282 284 286 288 289 290 291 292 293 294 296 298 300 301 302 305 307
240 242 244 246 245 245 247 249 251 253 255 258 260 261 263 266 268 269 270 272 274 276 277 278 281 283 285 287 289 289 289 290 291 292 294 296 297 299 300 302 305 306
240 244 246 246 245 245 248 249 250 252 254 258 261 261 261 263 266 268 270 271 273 275 277 278 281 283 285 287 289 290 290 290 291 292 293 295 296 298 299 302 304 304
240 243 246 247 245 247 250 250 250 252 254 258 263 262 261 262 264 267 269 270 272 274 276 278 281 282 285 287 289 290 290 290 290 291 293 294 295 297 299 302 303 302
240 241 243 245 246 249 250 250 251 252 254 258 263 263 262 263 265 267 269 270 272 273 275 278 280 281 284 287 288 289 289 290 290 290 292 293 295 296 298 301 301 300
238 239 241 243 246 248 250 250 251 252 253 257 261 261 262 265 267 267 268 270 272 273 275 277 279 281 284 286 287 287 288 289 289 290 291 293 294 295 297 299 299 297
237 238 240 242 244 246 248 249 250 251 253 256 258 259 263 266 267 268 268 269 270 272 274 276 279 281 283 284 285 286 287 288 289 290 291 292 293 294 296 298 296 295
236 237 239 241 243 245 247 248 250 250 252 253 254 257 262 265 266 267 267 268 269 270 273 276 279 281 282 283 283 284 286 287 288 289 290 292 292 293 296 296 293 293
236 237 239 240 242 244 245 246 248 249 250 251 252 256 261 264 265 266 267 267 268 269 272 276 279 280 280 281 282 283 285 287 288 289 289 291 291 292 295 294 291 291
236 236 238 239 241 242 244 245 246 247 248 249 252 257 260 261 262 264 266 266 267 270 272 275 277 278 277 278 281 283 285 286 288 288 289 290 290 292 294 292 289 290
235 236 236 237 239 240 242 244 246 247 248 250 253 256 258 259 260 262 264 265 267 269 271 273 274 274 275 277 280 283 284 286 287 287 288 289 290 292 293 290 288 290
234 235 235 235 237 238 240 243 246 248 250 252 254 255 256 258 259 261 264 265 266 268 269 270 271 271 274 276 279 282 284 286 287 287 287 289 291 293 293 288 287 289
233 233 234 235 236 237 239 241 244 247 249 251 253 253 254 257 259 261 264 264 265 266 267 268 269 271 273 276 279 282 284 286 287 287 288 290 292 294 292 287 286 287
233 234 236 238 237 236 238 240 242 243 244 248 251 252 252 254 258 261 263 262 263 264 266 268 269 270 273 276 279 282 284 287 288 288 289 292 293 294 291 286 285 285
234 235 237 237 236 235 236 238 239 239 241 245 249 248 248 252 257 260 262 261 262 262 264 267 269 270 272 275 278 281 283 287 290 289 290 292 294 293 289 286 285 284
234 234 235 235 235 234 236 237 237 236 237 241 245 246 248 252 255 258 261 262 261 262 264 267 268 269 272 273 276 280 283 287 290 291 291 293 294 293 289 286 285 283
234 234 234 235 236 235 235 236 236 235 235 239 244 248 252 254 254 255 259 261 261 262 263 265 267 270 271 272 275 279 283 287 291 291 292 293 295 293 289 287 286 283
234 234 234 235 236 236 235 235 236 236 237 239 243 248 252 253 252 252 255 259 261 261 262 264 267 269 270 272 275 279 283 287 291 292 292 294 295 293 290 288 287 283
234 234 234 235 236 236 235 235 235 236 236 238 243 248 250 249 249 250 253 257 261 262 262 265 267 268 270 272 276 279 283 287 290 292 292 293 294 294 291 289 287 284
232 232 233 234 235 236 235 235 235 235 236 240 244 246 245 244 246 249 252 257 261 262 263 265 267 268 270 273 277 280 283 287 289 291 291 292 294 294 291 289 287 284
230 230 230 231 232 233 234 234 234 235 236 239 241 241 241 241 243 246 250 255 260 262 264 266 267 269 271 274 278 281 283 285 287 289 289 291 293 294 292 289 288 285
227 228 230 232 230 229 231 232 233 234 234 235 236 236 237 237 239 244 248 252 257 262 265 266 268 270 272 275 278 280 282 284 285 286 287 288 291 293 293 290 288 285
224 224 227 230 228 227 228 229 231 232 231 232 234 234 234 235 239 244 247 251 255 260 264 267 270 271 273 275 278 280 281 283 284 284 284 286 289 291 292 291 288 284
223 223 225 227 227 226 226 228 230 231 231 231 232 232 232 234 240 244 246 251 254 257 262 267 270 271 272 274 276 279 281 282 283 282 281 283 286 288 290 290 288 283
Height
10721 10725 10729 10732 10736 10739 10742 10744 10746 10747 10748 10748 10750 10751 10753 10753 10753 10754 10755 10754 10754 10754 10753 10752 10752 10752 10752 10752 10752 10751 10749 10749 10748 10747 10746 10745 10743 10742 10741 10739 10737 10734
10716 10720 10723 10727 10731 10734 10736 10738 10741 10743 10743 10744 10745 10746 10748 10748 10749 10750 10750 10750 10750 10750 10749 10748 10748 10748 10748 10748 10748 10748 10746 10744 10744 10743 10741 10740 10739 10738 10737 10734 10732 10730
10709 10713 10717 10721 10725 10728 10729 10732 10735 10738 10739 10740 10740 10742 10743 10743 10744 10745 10745 10746 10746 10746 10746 10744 10743 10744 10744 10744 10744 10744 10743 10740 10740 10739 10737 10736 10735 10734 10732 10731 10728 10726
10703 10707 10711 10716 10718 10721 10723 10727 10730 10732 10734 10735 10735 10737 10738 10738 10739 10740 10740 10741 10741 10741 10741 10740 10739 10739 10739 10739 10740 10740 10739 10737 10735 10734 10733 10732 10731 10729 10728 10727 10725 10722
10698 10701 10705 10709 10712 10714 10717 10722 10725 10726 10728 10730 10730 10732 10733 10734 10734 10735 10736 10736 10736 10736 10736 10736 10736 10735 10734 10735 10735 10735 10735 10733 10731 10730 10729 10728 10727 10725 10724 10723 10721 10719
10692 10696 10699 10702 10706 10708 10712 10716 10719 10721 10722 10724 10725 10726 10728 10729 10730 10730 10731 10731 10731 10731 10731 10732 10732 10731 10730 10730 10730 10730 10730 10729 10727 10726 10725 10724 10723 10722 10720 10719 10717 10715
10686 10690 10692 10695 10698 10702 10706 10711 10713 10715 10716 10717 10719 10720 10722 10723 10724 10725 10726 10726 10726 10726 10726 10727 10727 10727 10725 10726 10726 10725 10725 10725 10723 10721 10721 10720 10719 10718 10717 10715 10714 10712
10677 10681 10684 10687 10691 10696 10701 10704 10707 10710 10710 10712 10714 10715 10716 10717 10719 10719 10720 10721 10722 10721 10722 10722 10723 10722 10721 10721 10721 10720 10720 10720 10719 10717 10716 10716 10715 10714 10713 10712 10710 10709
10669 10674 10678 10681 10685 10690 10695 10698 10701 10704 10705 10707 10709 10710 10710 10712 10713 10714 10715 10716 10717 10717 10717 10718 10718 10718 10717 10715 10715 10715 10715 10716 10715 10713 10712 10712 10711 10710 10709 10708 10707 10706
10662 10668 10671 10675 10680 10685 10689 10692 10695 10698 10700 10702 10704 10705 10706 10707 10708 10709 10710 10711 10712 10712 10712 10713 10713 10713 10712 10711 10710 10711 10711 10711 10711 10710 10708 10707 10707 10706 10706 10705 10703 10702
10655 10660 10665 10671 10676 10679 10682 10685 10688 10691 10694 10696 10699 10700 10701 10702 10703 10704 10705 10706 10706 10707 10707 10708 10708 10708 10707 10706 10705 10706 10706 10707 10707 10706 10704 10704 10703 10702 10702 10701 10699 10699
10648 10654 10660 10665 10668 10671 10673 10676 10680 10684 10688 10691 10693 10695 10696 10697 10698 10699 10700 10700 10701 10701 10702 10703 10703 10703 10703 10701 10700 10701 10702 10702 10702 10701 10700 10700 10699 10699 10699 10697 10695 10695
10641 10647 10652 10655 10659 10663 10666 10668 10672 10677 10682 10686 10687 10689 10691 10693 10694 10694 10695 10695 10696 10696 10697 10698 10698 10698 10697 10696 10696 10696 10697 10698 10698 10697 10696 10696 10695 10695 10695 10693 10691 10691
10635 10639 10643 10647 10652 10656 10659 10662 10666 10671 10676 10680 10682 10683 10686 10688 10689 10689 10690 10691 10691 10692 10692 10693 10694 10693 10692 10691 10691 10691 10692 10693 10693 10692 10691 10691 10691 10692 10691 10689 10687 10687
10628 10631 10635 10640 10645 10650 10654 10657 10661 10666 10670 10674 10675 10677 10681 10683 10683 10683 10684 10686 10687 10687 10687 10688 10689 10688 10686 10686 10686 10687 10687 10688 10689 10688 10687 10687 10687 10688 10687 10685 10683 10683
10618 10623 10628 10633 10638 10644 10648 10651 10655 10659 10663 10666 10668 10670 10674 10676 10677 10677 10678 10680 10681 10683 10683 10683 10684 10683 10682 10681 10681 10682 10682 10683 10684 10684 10683 10683 10683 10684 10683 10681 10680 10679
10609 10615 10621 10625 10632 10638 10641 10644 10648 10652 10656 10660 10662 10664 10667 10670 10670 10671 10673 10674 10675 10677 10678 10678 10678 10678 10678 10677 10677 10677 10678 10678 10680 10681 10680 10679 10679 10680 10679 10677 10676 10676
10601 10608 10613 10618 10624 10630 10634 10638 10641 10644 10649 10654 10656 10658 10661 10663 10664 10666 10667 10668 10670 10672 10673 10673 10673 10673 10674 10674 10673 10673 10674 10675 10676 10677 10676 10675 10675 10676 10675 10673 10673 10672
10593 10600 10606 10612 10617 10623 10627 10630 10634 10638 10643 10647 10649 10652 10655 10657 10659 10660 10662 10663 10665 10666 10667 10667 10667 10669 10669 10669 10669 10670 10670 10671 10672 10673 10672 10671 10671 10671 10670 10669 10669 10668
10587 10594 10601 10606 10610 10615 10619 10623 10628 10633 10636 10640 10642 10645 10649 10651 10653 10654 10656 10658 10659 10660 10661 10662 10663 10664 10664 10664 10665 10666 10666 10667 10668 10669 10668 10666 10666 10667 10666 10665 10664 10664
10581 10588 10594 10599 10603 10607 10612 10617 10622 10626 10630 10633 10636 10639 10643 10645 10647 10648 10651 10652 10653 10655 10656 10657 10658 10659 10659 10659 10660 10661 10662 10663 10664 10664 10664 10662 10662 10663 10662 10661 10660 10660
10571 10579 10585 10590 10594 10599 10604 10610 10615 10619 10623 10626 10629 10633 10636 10638 10641 10643 10645 10646 10647 10649 10651 10653 10653 10654 10654 10654 10655 10657 10658 10658 10659 10660 10659 10658 10658 10658 10658 10657 10656 10656
10560 10568 10575 10580 10586 10591 10597 10603 10608 10612 10616 10619 10622 10626 10629 10633 10635 10637 10638 10639 10641 10643 10646 10647 10648 10649 10649 10650 10650 10652 10653 10654 10655 10655 10655 10654 10653 10654 10654 10653 10652 10652
10551 10561 10570 10573 10577 10584 10591 10595 10599 10604 10608 10612 10615 10619 10623 10626 10628 10630 10631 10633 10635 10637 10640 10641 10642 10643 10644 10644 10645 10647 10648 10649 10650 10651 10650 10649 10649 10649 10649 10649 10648 10649
10542 10553 10559 10562 10568 10576 10583 10587 10591 10595 10600 10603 10607 10611 10616 10619 10622 10624 10626 10627 10629 10631 10634 10635 10636 10637 10638 10639 10639 10641 10642 10644 10646 10646 10646 10645 10644 10644 10645 10644 10644 10644
10534 10543 10549 10554 10561 10568 10574 10579 10583 10587 10591 10595 10599 10604 10608 10613 10617 10620 10621 10622 10624 10625 10627 10629 10630 10629 10630 10632 10633 10634 10636 10638 10640 10641 10640 10640 10639 10639 10640 10640 10640 10640